Location: Narrabri
(30.3170°S, 149.7830°E)
Time: 17:20:35
(UTC+10:00)

OTV 5 (USA 277) - Visible Passes

Search period start: 23 September 2017 00:00
Search period end: 03 October 2017 01:00
Orbit: 404 x 417 km, 43.0° (Epoch: 07 September)

Date Brightness Start Highest point End Pass type
(mag) Time Alt. Az. Time Alt. Az. Time Alt. Az.
23 Sep ? 19:33:55 10° SW 19:36:12 26° S 19:36:12 26° S visible
24 Sep ? 18:43:04 10° SSW 18:45:46 21° SSE 18:47:41 14° ESE visible
24 Sep ? 20:19:55 10° WSW 20:20:27 14° WSW 20:20:27 14° WSW visible
25 Sep ? 19:28:49 10° SW 19:32:01 71° S 19:32:01 71° S visible
26 Sep ? 18:37:50 10° SW 18:41:09 45° SSE 18:43:39 16° E visible
26 Sep ? 20:15:45 10° W 20:16:26 13° W 20:16:26 13° W visible
27 Sep ? 19:24:12 10° WSW 19:27:19 33° NW 19:28:10 28° N visible
28 Sep ? 18:32:56 10° WSW 18:36:19 60° NW 18:39:40 10° NE visible
29 Sep ? 19:21:14 10° WNW 19:22:13 11° NW 19:23:11 10° NNW visible
30 Sep ? 18:28:48 10° W 18:31:18 19° NW 18:33:47 10° N visible
